Live-Position
3D-Globus wird geladen...
Über Starlink 6368
Group: 3 satellites
Beschreibung wird geladen...
Nächste Überflüge
Passes for default location (London). Set your location on the main map for personalized predictions.
Höhenverlauf
Loading altitude history...
No altitude history available
Zweizeiliger Elementsatz
1 57234U 23094S 26124.55855651 -.00000144 00000-0 42781-5 0 9991
2 57234 43.0033 74.8705 0000793 274.8837 85.1924 15.27572510155662
Epoch: 4. Mai 2026 •
Age: 5 hours
Aktueller Status
Höhe 485.8 km
Geschwindigkeit 7.63 km/s
Subsatellitenpunkt 38.88°N,
5.69°W
Startdatum 7. Juli 2023
Alter 2.8 years
Typ internet
Startgruppe
Falcon 9 •
Group 5-13 •
46 satellites
Starlink 5525
57218
Starlink 5520 57219
Starlink 5880 57220
Starlink 5875 57221
Starlink 5870 57222
Starlink 5519 57223
Starlink 5983 57224
Starlink 6294 57225
Starlink 6350 57226
Starlink 5996 57227
Starlink 6230 57228
Starlink 6233 57229
Starlink 6250 57230
Starlink 5840 57231
Starlink 5872 57232
Starlink 5866 57233
Starlink 6360 57235
Starlink 6315 57236
Starlink 6365 57237
Starlink 6334 57238
...and 25 more
Technische Details
Klassifizierung Payload
Masse 305.00 kg
Trockenmasse 290.00 kg
Gesamtmasse 305.00 kg
Länge 0.20 m
Durchmesser 2.80 m
Spannweite 9.00 m
Form Box + pan
Hersteller SPXS
Bus-Typ Starlink
Phasenstatus In Orbit
Besitzer/Staat SPXS/US
Most Searched
Loading...